Location: Newark
(46.4833°N, 6.4167°E)
Time: 14:26:34
(UTC+00:00)

Starlink Launch 2 leader - Visible Passes

Search period start: 14 December 2019 00:00
Search period end: 24 December 2019 00:00
Orbit: 279 x 281 km, 53.0° (Epoch: 13 November)

Date Brightness Start Highest point End Pass type
(mag) Time Alt. Az. Time Alt. Az. Time Alt. Az.
21 Dec 4.9 17:14:10 10° SSE 17:14:45 11° SE 17:14:45 11° SE visible
22 Dec 4.0 17:14:52 10° S 17:16:48 20° SE 17:16:54 20° SE visible
23 Dec 3.0 17:16:18 10° SW 17:18:38 38° SE 17:18:59 35° ESE visible
